User: anonymous   Login
Location: Unspecified
(0.0000°N, 0.0000°E)
Time: 23:49:17
(UTC+00:00)
Language:

STARLINK-3782 - Orbit

View from above orbital plane
View from above orbital plane
View from above satellite
View from above satellite

Ground track
Ground track

The orbit is defined by the following mean orbital elements,

1 52273U          26145.29472911 +.00000000 +00000-0 -11971-3 0 00008
2 52273  53.2138 115.6078 0001121  99.7578 260.3541 15.08856387    03
Epoch (UTC): 25 May 2026 07:04:24
Eccentricity: 0.0001121
inclination: 53.2138°
perigee height: 539 km
apogee height: 540 km
right ascension of ascending node: 115.6078°
argument of perigee: 99.7578°
revolutions per day: 15.08856387
mean anomaly at epoch: 260.3541°

The dashed part of the orbit path shows where the satellite is in the earth's shadow,  

DLR